{"data":{"norad_id":58526,"epoch":"2026-05-25T02:33:09.769248Z","epoch_age_seconds":56019,"freshness":"FRESH","line1":"1 58526U 23191U   26145.10636307  .00017185  00000+0  10861-2 0  9995","line2":"2 58526  43.0011  46.7431 0006293 201.2123 158.8461 15.08763130136987","mean_motion":15.0876313,"eccentricity":0.0006293,"inclination_deg":43.0011,"raan_deg":46.7431,"arg_perigee_deg":201.2123,"mean_anomaly_deg":158.8461,"bstar":0.0010861,"rev_number":13698,"period_min":95.442417127465,"perigee_km":535.62478978168,"apogee_km":544.33192977349,"semimajor_km":6918.1153597776,"source":"CELESTRAK","updated_at":"2026-05-25T13:38:18.658959Z"}}